Fort Morgan, CO

10:47 PM MDT on April 22, 2018 (GMT -0600)
Fort Morgan

Weather History for KFMM - November, 2012

Change the Weather History Date:

Wednesday, November 7, 2012

  Actual Average (KAKO) Record (KAKO)
Temperature  
Mean Temperature 51 °F -  
Max Temperature 74 °F 55 °F 80 °F (1999)
Min Temperature 28 °F 28 °F 8 °F (1947)
Degree Days  
Heating Degree Days 14    
Growing Degree Days 1 (Base 50)    
Moisture  
Dew Point 29 °F    
Average Humidity 47    
Maximum Humidity 96    
Minimum Humidity 17    
Precipitation  
Precipitation 0.00 in - - ()
Sea Level Pressure  
Sea Level Pressure 29.99 in    
Wind  
Wind Speed 6 mph ()    
Max Wind Speed 12 mph    
Max Gust Speed -    
Visibility 9.9 miles    
Events      
Averages and records for this station are not official NWS values.
T = Trace of Precipitation, MM = Missing Value Source: Averaged Metar Reports

Daily Weather History Graph

Daily Weather History Graph

Search for Another Location

Airport or City:

Astronomy

Nov. 07, 2012 Rise Set
Actual Time 6:32 AM MST 4:44 PM MST
Civil Twilight 6:03 AM MST 5:13 PM MST
Nautical Twilight 5:31 AM MST 5:46 PM MST
Astronomical Twilight 4:59 AM MST 6:17 PM MST
Moon No Moon Rise 12:56 PM MST (11/7)
Length of Visible Light 11h 09m
Length of Day
10h 12m
Last Quarter, 42% of the Moon is Illuminated
Nov 7
Last Quarter
Nov 13
New
Nov 20
First Quarter
Nov 28
Full
Dec 6
Last Quarter

Hourly Weather History & Observations

Time (MST) Temp. Windchill Dew Point Humidity Pressure Visibility Wind Dir Wind Speed Gust Speed Precip Events Conditions
12:15 AM 38.8 °F 34.6 °F 31.6 °F 75% 30.17 in 10.0 mi West 5.8 mph - N/A   Clear
12:35 AM 37.6 °F 33.1 °F 30.9 °F 77% 30.16 in 10.0 mi WSW 5.8 mph - N/A   Clear
12:55 AM 35.6 °F 30.7 °F 30.4 °F 81% 30.16 in 10.0 mi WSW 5.8 mph - N/A   Clear
1:15 AM 33.8 °F 27.0 °F 29.8 °F 85% 30.15 in 10.0 mi West 8.1 mph - N/A   Clear
6:15 AM 30.0 °F 20.5 °F 28.8 °F 95% 30.09 in 10.0 mi West 11.5 mph - N/A   Clear
6:35 AM 28.9 °F 21.1 °F 27.5 °F 94% 30.10 in 10.0 mi West 8.1 mph - N/A   Clear
6:55 AM 29.1 °F 20.6 °F 28.0 °F 96% 30.10 in 10.0 mi WSW 9.2 mph - N/A   Clear
7:15 AM 29.8 °F 20.3 °F 28.6 °F 95% 30.10 in 10.0 mi WSW 11.5 mph - N/A   Clear
7:35 AM 32.4 °F 24.6 °F 31.3 °F 96% 30.10 in 10.0 mi West 9.2 mph - N/A   Clear
7:55 AM 37.0 °F 29.3 °F 33.4 °F 87% 30.09 in 10.0 mi West 11.5 mph - N/A   Clear
8:15 AM 39.9 °F 32.9 °F 33.6 °F 78% 30.09 in 10.0 mi West 11.5 mph - N/A   Clear
8:35 AM 41.9 °F 36.3 °F 34.3 °F 75% 30.10 in 10.0 mi West 9.2 mph - N/A   Clear
8:55 AM 44.2 °F 39.2 °F 34.9 °F 70% 30.09 in 10.0 mi WSW 9.2 mph - N/A   Clear
9:15 AM 46.6 °F - 34.3 °F 62% 30.09 in 10.0 mi WSW 11.5 mph - N/A   Clear
9:35 AM 49.5 °F - 34.9 °F 57% 30.08 in 10.0 mi West 11.5 mph - N/A   Clear
9:55 AM 52.7 °F - 34.2 °F 49% 30.07 in 10.0 mi West 11.5 mph - N/A   Clear
10:15 AM 56.3 °F - 32.2 °F 40% 30.07 in 10.0 mi West 8.1 mph - N/A   Clear
10:35 AM 57.6 °F - 29.8 °F 35% 30.06 in 10.0 mi WSW 4.6 mph - N/A   Clear
10:55 AM 60.1 °F - 30.4 °F 33% 30.04 in 10.0 mi West 4.6 mph - N/A   Clear
11:15 AM 61.9 °F - 30.7 °F 31% 30.03 in 10.0 mi WSW 3.5 mph - N/A   Clear
11:35 AM 64.6 °F - 29.8 °F 27% 30.02 in 10.0 mi Calm Calm - N/A   Clear
11:55 AM 66.2 °F - 30.6 °F 26% 30.00 in 10.0 mi South 3.5 mph - N/A   Clear
12:15 PM 68.0 °F - 30.4 °F 25% 29.98 in 10.0 mi SW 4.6 mph - N/A   Clear
12:35 PM 69.6 °F - 30.7 °F 24% 29.97 in 10.0 mi SW 5.8 mph - N/A   Clear
12:55 PM 70.7 °F - 30.6 °F 23% 29.96 in 10.0 mi Calm Calm - N/A   Clear
1:15 PM 71.6 °F - 30.2 °F 22% 29.96 in 10.0 mi SE 3.5 mph - N/A   Clear
1:35 PM 72.7 °F - 29.8 °F 21% 29.95 in 10.0 mi ESE 4.6 mph - N/A   Clear
1:55 PM 73.0 °F - 29.3 °F 20% 29.94 in 10.0 mi Calm Calm - N/A   Clear
2:15 PM 73.4 °F - 29.1 °F 19% 29.93 in 10.0 mi Calm Calm - N/A   Clear
2:35 PM 74.3 °F - 27.9 °F 18% 29.92 in 10.0 mi Calm Calm - N/A   Clear
2:55 PM 74.7 °F - 27.0 °F 17% 29.92 in 10.0 mi East 3.5 mph - N/A   Clear
3:15 PM 71.4 °F - 27.0 °F 19% 29.92 in 10.0 mi Calm Calm - N/A   Clear
3:35 PM 67.6 °F - 30.6 °F 25% 29.92 in 7.0 mi NNE 3.5 mph - N/A   Clear
3:55 PM 67.8 °F - 30.7 °F 25% 29.92 in 10.0 mi NE 3.5 mph - N/A   Clear
4:15 PM 68.4 °F - 30.7 °F 25% 29.91 in 10.0 mi NE 3.5 mph - N/A   Clear
4:35 PM 66.7 °F - 27.9 °F 23% 29.91 in 10.0 mi NE 3.5 mph - N/A   Clear
4:55 PM 62.2 °F - 28.0 °F 27% 29.91 in 10.0 mi NNE 5.8 mph - N/A   Clear
5:15 PM 58.1 °F - 28.2 °F 32% 29.91 in 10.0 mi NE 5.8 mph - N/A   Clear
5:35 PM 61.0 °F - 26.8 °F 27% 29.91 in 10.0 mi ENE 4.6 mph - N/A   Clear
5:55 PM 59.5 °F - 26.4 °F 28% 29.92 in 10.0 mi ENE 4.6 mph - N/A   Clear
6:15 PM 61.3 °F - 26.1 °F 26% 29.92 in 10.0 mi ENE 3.5 mph - N/A   Clear
6:35 PM 60.4 °F - 25.7 °F 27% 29.92 in 10.0 mi East 4.6 mph - N/A   Clear
6:55 PM 58.8 °F - 25.7 °F 28% 29.92 in 10.0 mi SE 3.5 mph - N/A   Clear
7:15 PM 56.7 °F - 25.2 °F 30% 29.92 in 10.0 mi Calm Calm - N/A   Clear
7:35 PM 56.3 °F - 24.8 °F 30% 29.91 in 10.0 mi Calm Calm - N/A   Clear
7:55 PM 56.5 °F - 24.3 °F 29% 29.92 in 10.0 mi Calm Calm - N/A   Clear
8:15 PM 53.1 °F - 24.3 °F 33% 29.92 in 10.0 mi SW 4.6 mph - N/A   Clear
8:35 PM 51.1 °F - 24.6 °F 36% 29.93 in 10.0 mi SW 4.6 mph - N/A   Clear
8:55 PM 47.3 °F - 25.7 °F 43% 29.93 in 10.0 mi Calm Calm - N/A   Clear
9:15 PM 45.3 °F 41.1 °F 25.9 °F 47% 29.93 in 10.0 mi WSW 8.1 mph - N/A   Clear
9:35 PM 43.0 °F 37.2 °F 26.8 °F 53% 29.93 in 10.0 mi SW 10.4 mph - N/A   Clear
9:55 PM 39.4 °F 37.2 °F 26.4 °F 60% 29.93 in 10.0 mi West 3.5 mph - N/A   Clear
10:15 PM 40.5 °F 36.5 °F 27.5 °F 60% 29.93 in 10.0 mi West 5.8 mph - N/A   Clear
10:55 PM 36.5 °F 31.0 °F 28.2 °F 72% 29.92 in 10.0 mi WSW 6.9 mph - N/A   Clear
11:15 PM 36.7 °F 32.9 °F 29.1 °F 74% 29.92 in 10.0 mi West 4.6 mph - N/A   Clear
11:35 PM 36.0 °F 29.0 °F 30.2 °F 80% 29.93 in 10.0 mi West 9.2 mph - N/A   Clear